Location: Sihaung
(22.8641°N, 94.0549°E)
Time: 13:59:47
(UTC+00:00)

GPS 2-14 Rocket1 - Pass Details

Date: 03 March 2021
Orbit: 475 x 539 km, 20.7° (Epoch: 11 April)

Event Time Altitude Azimuth Distance (km) Brightness Sun altitude
Rises 13:10:12 0° 266° (W) 2,539 7.8 -19.7°
Reaches altitude 10° 13:12:27 10° 263° (W) 1,650 6.4 -20.2°
Maximum altitude 13:16:13 62° 182° (S) 535 2.6 -21.1°
Enters shadow 13:16:19 62° 172° (S) 537 2.6 -21.1°
